Weather in Novosadovyy

Russia / Belgorod Oblast     50°38′41″N   36°40′57″E
temp.,
°C
wind,
m/s
gust,
m/s
humid.,
%
clouds,
%
prec.,
mm/h
press.,
hPa
HPBL,
m
3 august, tue
tue300:00+21s1178100 1.3 101037
03:00+19wsw228773 1.6 101032
06:00+20w259017 0.0 1010187
09:00+24wnw346168 0.0 1011678
12:00+27w564459 0.0 10111561
15:00+29wnw5632100 0.0 10112178
18:00+27nw66360 0.0 10111771
21:00+20n47550 0.0 1013129
4 august, wed
wed400:00+18n356819 0.0 101599
03:00+17ne357623 0.0 1015102
06:00+17nw117172 0.0 101656
09:00+21nw1252100 0.0 1017525
12:00+27w453388 0.0 10172711
15:00+28wnw5624100 0.0 10162897
18:00+26nw65286 0.0 10172096
21:00+19ne34435 0.0 101843
5 august, thu
thu500:00+17e355520 0.0 101867
03:00+15e2262100 0.0 101819
06:00+16se226036 0.0 101846
09:00+24sse353580 0.0 1018665
12:00+29sse4425100 0.0 10162732
15:00+30s552395 0.0 10142975
18:00+29ssw652555 0.0 10132608
21:00+24sse3435100 0.0 101373
6 august, fri
fri600:00+20sse484852 0.0 1013121
03:00+19sse411515 0.0 1013178
06:00+19se3949100 0.0 1012186
09:00+27sse6103091 0.0 1011674
12:00+33s79238 0.0 10092318
15:00+35s782226 0.0 10083052
18:00+34s682792 0.1 10071908
21:00+28se373984 0.3 1007128
7 august, sat
sat700:00+24se41244100 0.0 1008228
03:00+20se4145697 0.1 1008289
06:00+21se31051100 0.1 1009260
09:00+23ene456199 0.3 1008153
12:00+27ese6940100 0.8 1008914
15:00+29ne3537100 1.4 1007301
18:00+33s7922100 0.0 10061683
21:00+24ssw1253100 0.1 100714